This demonstration page uses our WeatherBlox Daily Observations layout. Learn more.

Left ArrowRight Arrow

41.55636, -103.73856

Hourly Observations for June 18, 2021

Temp ( °F °C ) Dew Point ( °F °C ) Humidity (%) Winds ( mph kmh ) Pressure ( in mb ) Visibility ( mi km ) Precip ( " mm )
12:58 am 00:58 Clear 72 22.3 39 4 30 30 SSW 7 11 29.78 1008 10 16 N/A
1:58 am 01:58 Clear 67 19.6 47 8.3 48 48 N N/A 29.81 1010 10 16 N/A
2:58 am 02:58 Clear 63 17.2 49 9.3 60 60 SW 8 13 29.81 1009 10 16 N/A
3:58 am 03:58 Clear 61 15.9 50 10.1 69 69 NNW 8 13 29.83 1010 10 16 N/A
4:58 am 04:58 Clear 59 15.2 52 11 76 76 WNW 10 17 29.85 1011 10 16 N/A
5:58 am 05:58 Mostly Sunny 59 15.2 54 12.4 84 84 NW 9 15 29.91 1013 10 16 N/A
6:58 am 06:58 Mostly Sunny 62 16.4 56 13.4 83 83 NW 9 15 29.94 1014 10 16 N/A
7:58 am 07:58 Sunny 65 18.4 59 14.8 80 80 NNW 6 9 29.97 1015 10 16 N/A
8:58 am 08:58 Sunny 68 20 60 15.3 74 74 NNE 7 11 29.96 1014 10 16 N/A
9:58 am 09:58 Sunny 72 22 60 15.4 66 66 W 7 11 29.96 1015 10 16 N/A
10:58 am 10:58 Sunny 74 23.3 59 15.1 60 60 NW 6 9 29.96 1014 10 16 N/A
11:58 am 11:58 Sunny 80 26.7 58 14.2 46 46 NE 10 17 29.93 1014 10 16 N/A
12:58 pm 12:58 Sunny 83 28.3 52 11.2 35 35 E 8 13 29.91 1013 10 16 N/A
1:58 pm 13:58 Sunny 84 28.8 51 10.6 32 32 ENE 5 7 29.89 1012 10 16 N/A
2:58 pm 14:58 Sunny 85 29.5 50 10.1 30 30 SE 7 11 29.88 1012 10 16 N/A
3:58 pm 15:58 Hazy 86 29.8 50 10.1 29 29 SE 7 11 29.88 1012 3 5 N/A
4:58 pm 16:58 Mostly Sunny 85 29.2 49 9.3 29 29 ESE 16 26 29.87 1011 10 16 N/A
5:58 pm 17:58 Sunny 85 29.2 48 9 28 28 ESE 15 24 29.85 1011 10 16 N/A
6:58 pm 18:58 Sunny 84 28.7 48 9 29 29 SSE 10 17 29.86 1011 10 16 N/A
7:58 pm 19:58 Sunny 79 26 50 9.8 36 36 SE 9 15 29.89 1012 10 16 N/A
8:58 pm 20:58 Partly Cloudy 75 23.9 51 10.6 43 43 SSE 10 17 29.90 1012 10 16 N/A
9:58 pm 21:58 Mostly Cloudy 74 23.5 57 13.9 55 55 S 12 19 29.92 1013 10 16 N/A
10:58 pm 22:58 Clear 72 22.2 56 13.6 58 58 SSE 13 20 29.89 1012 10 16 N/A
11:58 pm 23:58 Clear 66 18.8 56 13.3 71 71 N 5 7 29.88 1012 10 16 N/A

Powered by AerisWeather